Probability
0 0 0 0 0 0 0 0 0 0 0 0 0 0 0 0 0 0 0 0 0 0 0 0 0 0 0 0 0 0 0 0 1 2 2 2 1 0 0 0 0 0 0
0 0 0 0 0 0 0 0 0 0 0 0 0 0 0 0 0 0 0 0 0 0 0 0 0 0 0 0 0 0 0 0 0 1 2 3 2 1 0 0 0 0 0
0 0 0 0 0 0 0 0 0 0 0 0 0 0 0 0 0 0 0 0 0 0 0 0 0 0 0 0 0 0 0 0 0 1 2 3 3 2 0 0 0 0 0
0 0 0 0 0 0 0 0 0 0 0 0 0 0 0 0 0 0 0 0 0 0 0 0 0 0 0 0 0 0 0 0 0 0 1 2 2 1 0 0 0 0 0
0 0 0 0 0 0 0 0 0 0 0 0 0 0 0 0 0 0 0 0 0 0 0 0 0 0 0 0 0 0 1 0 0 0 0 1 1 0 0 0 0 0 0
0 0 0 0 0 0 0 0 0 0 0 0 0 0 0 0 0 0 0 0 0 0 0 0 0 0 0 0 0 0 0 0 0 0 0 0 0 0 0 0 0 0 0
0 0 0 0 0 0 0 0 0 0 0 0 0 0 0 0 0 0 0 0 0 0 0 0 0 0 0 0 0 0 0 0 0 0 0 0 0 0 0 0 0 0 0
0 0 0 0 0 0 0 0 0 0 0 0 0 0 0 0 0 0 0 0 0 0 0 0 0 0 0 0 0 0 0 0 0 0 1 1 0 0 0 0 0 0 0
0 0 0 0 0 0 0 0 0 0 0 0 0 0 0 0 0 0 0 0 0 0 0 0 0 0 0 0 0 0 0 0 0 0 1 2 1 1 0 0 0 0 0
0 0 0 0 0 0 0 0 0 0 0 0 0 0 0 0 0 0 0 0 0 0 0 0 0 0 0 0 0 0 0 0 0 0 1 2 2 2 1 1 1 1 0
0 0 0 0 0 0 0 0 0 0 0 0 0 0 0 0 0 0 0 0 0 0 0 0 0 0 0 0 0 0 0 0 0 0 0 1 1 2 2 2 2 2 1
0 0 0 0 0 0 0 0 0 0 0 0 0 0 0 0 0 0 0 0 0 0 0 0 0 0 0 0 0 0 0 0 0 0 0 0 0 1 1 2 2 2 2
0 0 0 0 0 0 0 0 0 0 0 0 0 0 0 0 0 0 0 0 0 0 0 0 0 0 0 0 0 0 0 0 0 0 0 0 0 0 0 0 0 1 2
0 0 0 0 0 0 0 0 0 0 0 0 0 0 0 0 0 0 0 0 0 0 0 0 0 0 0 0 0 0 0 0 0 0 0 0 0 0 0 0 0 0 1
0 0 0 0 0 0 0 0 0 0 0 0 0 0 0 0 0 0 0 0 0 0 0 0 0 0 0 0 0 0 0 0 0 0 0 0 0 0 0 0 0 0 0
0 0 0 0 0 0 0 0 0 0 0 0 0 0 0 0 0 0 0 0 0 0 0 0 0 0 0 0 0 0 0 0 0 0 0 0 0 0 0 0 0 0 0
0 0 0 0 0 0 0 0 0 0 0 0 0 0 0 0 0 0 0 0 0 0 0 0 0 0 0 0 0 0 0 0 0 0 0 0 0 0 0 0 0 0 0
0 0 0 0 0 0 0 0 0 0 0 0 0 0 0 0 0 0 0 0 0 0 0 0 0 0 0 0 0 0 0 0 0 0 0 0 0 0 0 0 0 0 0
0 0 0 0 0 0 0 0 0 0 0 0 0 0 0 0 0 0 0 0 0 0 0 0 0 0 0 0 0 0 0 0 0 0 0 0 0 0 0 0 0 0 0
0 0 0 0 0 0 0 0 0 0 0 0 0 0 0 0 0 0 0 0 0 0 0 0 0 0 0 0 0 0 0 0 0 0 0 0 0 0 0 0 0 0 0
0 0 0 0 0 0 0 0 0 0 0 0 0 0 0 0 0 0 0 0 0 0 0 0 0 0 0 0 0 0 0 0 0 0 0 0 0 0 0 0 0 0 0
0 0 0 0 0 0 0 0 0 0 0 0 0 0 0 0 0 0 0 0 0 0 0 0 0 0 0 0 0 0 0 0 0 0 0 0 0 0 0 0 0 0 0
0 0 0 0 0 0 0 0 0 0 0 0 0 0 0 0 0 0 0 0 0 0 0 0 0 0 0 0 0 0 0 0 0 0 0 0 0 0 0 0 0 0 0
0 0 0 0 0 0 0 0 0 0 0 0 0 0 0 0 0 0 0 0 0 0 0 0 0 0 0 0 0 0 0 0 0 0 0 0 0 0 0 0 0 0 0
0 0 0 0 0 0 0 0 0 0 0 0 0 0 0 0 0 0 0 0 0 0 0 0 0 0 0 0 0 0 0 0 0 0 0 0 0 0 0 0 0 0 0
0 0 0 0 0 0 0 0 0 0 0 0 0 0 0 0 0 0 0 0 0 0 0 0 0 0 0 0 0 0 0 0 0 0 0 0 0 0 0 0 0 0 0
Wind_Speed
3 3 2 3 3 3 3 2 3 3 3 3 3 3 3 2 2 2 2 6 8 8 8 8 8 8 8 8 8 8 7 7 7 7 7 8 8 8 8 9 9 10 10
3 2 3 3 3 3 2 2 2 2 2 2 3 3 2 2 2 2 2 4 7 8 8 8 9 10 9 9 9 9 9 8 8 8 8 8 9 9 10 10 10 11 11
3 2 3 3 3 3 3 2 2 2 2 3 3 3 2 2 2 2 2 2 3 7 9 9 9 10 10 10 10 10 10 10 9 9 9 9 10 10 10 11 11 11 11
4 3 2 3 3 2 3 2 2 2 2 2 2 2 2 2 2 2 2 2 2 3 6 10 10 10 10 11 11 11 11 11 10 10 10 10 10 11 11 12 12 12 12
5 3 2 3 3 2 3 3 3 2 2 3 2 2 2 1 1 2 2 3 3 4 4 7 10 10 11 11 12 12 12 12 12 11 11 11 12 12 12 12 12 12 13
4 4 3 4 4 3 3 3 4 3 2 2 2 2 2 1 1 1 2 2 3 4 4 5 4 6 11 12 12 12 13 13 13 12 12 12 12 13 13 13 13 13 13
4 4 3 3 3 3 3 3 3 3 3 3 1 2 2 2 2 2 2 2 3 4 4 4 4 3 4 10 12 13 14 14 14 14 14 14 14 14 14 14 15 15 15
4 4 4 3 3 3 4 4 3 3 2 3 1 1 2 2 2 2 1 1 2 3 4 5 4 5 4 3 8 13 14 15 15 15 15 15 15 15 15 15 15 16 16
4 4 4 3 3 3 3 4 3 3 2 2 2 1 1 2 3 2 2 2 3 2 3 4 5 5 5 4 5 10 14 15 16 15 15 16 16 17 17 17 16 16 16
4 4 4 4 3 3 3 4 4 2 2 2 2 2 1 1 1 3 2 2 3 3 3 4 4 4 4 4 6 11 14 15 16 16 16 16 16 17 17 17 17 17 17
4 4 4 3 3 3 3 3 4 3 2 2 1 1 1 1 1 2 4 4 4 2 2 3 2 3 4 4 4 9 14 15 15 15 16 16 17 17 17 17 17 18 17
2 3 3 3 3 3 3 3 3 3 3 2 2 1 1 1 1 2 3 4 5 3 3 2 2 2 3 4 7 13 14 15 15 15 16 16 17 17 18 18 18 18 18
2 3 3 2 2 3 2 2 2 3 3 3 2 1 1 2 2 2 3 4 4 4 2 1 1 2 4 4 6 14 13 15 16 16 16 17 17 17 18 18 18 18 18
1 2 2 2 3 2 3 2 2 2 2 3 3 2 2 2 2 2 2 3 4 4 2 3 2 2 4 4 8 14 9 15 16 16 17 17 17 17 17 18 18 19 18
1 2 2 2 2 3 3 2 2 3 2 3 2 2 2 2 2 2 2 1 2 4 5 3 3 3 4 4 9 7 7 14 16 17 17 17 17 17 17 18 18 19 18
1 1 2 2 2 2 3 2 2 2 3 3 2 3 3 2 2 2 2 2 2 3 5 3 4 5 6 7 11 8 8 16 15 16 17 17 17 17 18 18 18 19 19
1 1 1 1 2 2 2 2 2 2 2 3 3 3 3 3 2 2 2 2 2 3 5 6 4 5 6 7 8 7 7 7 8 15 16 17 17 17 17 18 18 18 19
1 1 1 1 1 2 2 1 2 2 2 3 3 3 3 3 3 3 2 3 3 3 4 7 6 6 6 7 7 8 8 8 7 14 17 17 17 17 18 18 18 18 18
1 1 1 1 1 1 1 1 1 2 2 2 3 3 3 3 3 3 3 3 3 4 3 5 7 6 5 5 7 8 8 6 8 11 14 15 17 18 19 19 18 18 18
1 1 1 1 1 2 2 2 2 2 3 3 3 3 3 3 3 4 4 4 4 4 4 4 6 6 6 6 6 7 8 6 7 8 10 12 16 17 18 19 19 18 19
1 1 1 2 2 1 2 2 2 2 2 2 3 3 4 4 5 5 4 4 4 4 4 5 6 6 6 7 7 7 8 9 7 5 7 8 9 8 9 14 16 18 19
1 1 1 1 2 2 3 3 2 1 2 2 3 4 4 4 5 7 8 8 6 5 5 5 5 7 8 7 7 7 8 9 8 4 7 9 7 8 8 7 15 20 19
1 1 1 1 2 2 3 3 2 1 2 2 3 3 3 4 4 4 6 8 7 8 8 6 6 7 8 7 8 8 8 8 9 7 8 9 6 8 8 10 20 20 19
0 1 1 1 1 2 3 3 3 2 1 2 2 3 3 4 4 5 5 5 5 5 7 5 5 6 6 7 6 7 8 8 8 6 6 8 7 8 9 8 16 18 19
0 1 1 1 2 3 3 3 2 1 1 2 3 3 3 4 7 8 5 5 6 6 7 9 9 9 11 12 10 6 6 6 8 6 4 5 7 9 9 7 9 16 18
1 0 1 1 2 3 3 3 3 1 2 2 2 3 4 5 8 8 4 4 6 6 6 7 8 8 7 8 10 6 5 5 7 6 4 6 7 8 8 6 6 8 10
Wind_Direction
30 22 20 15 11 8 8 6 14 17 12 10 17 24 16 15 12 13 3 17 14 12 12 10 9 7 4 2 359 357 355 350 343 342 339 336 333 331 330 328 325 321 319
37 28 21 16 8 5 357 350 4 11 3 12 13 6 358 4 8 10 14 16 20 18 15 12 9 6 2 357 355 352 350 350 349 345 340 335 331 327 323 320 319 317 315
32 27 26 18 1 356 357 356 7 9 12 14 4 351 353 2 360 15 25 25 13 15 12 13 11 6 3 359 353 350 348 347 345 344 341 335 329 324 321 319 316 315 314
30 32 30 13 356 4 9 7 8 9 11 4 347 335 343 351 7 16 34 33 25 17 10 13 11 5 0 357 355 355 353 348 344 339 336 334 329 325 321 317 315 312 310
30 30 27 11 4 14 17 10 9 6 5 357 335 327 334 342 358 25 39 37 32 26 17 13 11 7 360 355 353 351 350 349 345 340 336 335 331 327 323 320 316 312 309
31 29 29 16 13 17 16 13 10 6 359 340 327 333 323 329 11 24 30 40 33 26 18 13 5 2 3 359 355 350 347 347 346 341 338 335 332 329 326 322 318 316 313
32 37 28 19 19 21 9 11 9 8 2 351 357 341 334 346 41 22 27 36 30 20 13 8 2 358 352 359 357 355 352 350 349 347 342 337 332 328 325 322 318 315 312
26 30 29 22 17 22 15 12 19 11 1 4 349 330 331 337 11 350 5 26 23 15 10 4 360 3 357 356 354 355 350 346 344 341 339 336 332 326 323 321 318 315 312
27 25 26 27 21 26 18 5 15 23 356 354 19 29 344 302 318 314 348 12 9 4 357 352 357 358 360 358 346 348 347 344 340 337 335 332 330 326 324 321 319 317 315
23 23 26 28 25 26 23 9 15 11 7 348 356 11 358 287 295 310 315 348 352 348 346 346 350 350 354 347 343 344 345 344 339 335 334 331 329 326 325 324 322 321 319
21 22 26 29 27 28 27 19 13 15 16 358 346 334 347 336 328 280 299 319 330 328 328 325 331 338 344 342 335 336 340 339 337 337 336 333 329 327 325 323 321 320 319
9 18 23 28 27 26 24 19 18 16 11 6 0 7 346 317 310 295 289 304 308 308 314 318 329 337 335 337 334 336 337 335 335 335 334 332 329 327 324 322 321 319 318
354 360 11 18 20 20 16 14 17 12 5 2 354 348 336 316 303 293 286 295 301 305 304 315 337 341 336 335 326 334 334 333 330 330 330 328 327 325 324 324 321 318 316
342 357 14 15 12 13 7 8 10 4 4 359 351 349 346 330 327 319 300 302 307 302 297 296 323 329 330 325 327 335 329 329 327 328 327 325 324 323 322 321 321 318 315
6 14 23 16 10 13 7 7 22 10 6 4 1 5 358 338 336 329 326 306 289 296 298 301 319 327 325 323 326 326 322 322 324 325 324 322 321 321 321 320 320 319 317
15 15 15 9 8 12 14 19 21 13 17 1 356 1 353 343 341 339 334 320 292 273 282 297 305 314 321 320 323 324 318 321 321 321 320 322 321 322 322 320 320 318 318
4 355 355 12 8 2 5 16 10 3 5 357 350 354 349 347 342 333 324 314 304 291 285 297 300 310 312 315 319 320 317 317 315 319 320 322 321 320 320 319 319 318 317
348 357 18 19 357 352 358 2 350 346 343 342 338 340 336 337 330 321 317 307 300 297 290 298 307 311 310 314 317 319 323 321 316 319 322 323 323 321 320 318 317 318 318
12 16 23 355 331 332 337 333 329 328 329 327 325 321 318 325 322 322 317 308 304 309 303 297 303 307 308 317 319 316 315 313 316 319 321 322 321 320 319 319 319 319 317
30 7 352 330 322 324 323 320 331 325 318 324 325 325 319 318 316 317 315 311 310 313 312 305 303 310 312 313 317 319 319 320 317 317 315 318 318 319 318 317 317 316 314
27 360 357 343 331 323 318 321 315 308 312 330 336 332 333 334 332 328 322 317 313 312 316 313 310 313 315 322 324 320 314 316 310 308 313 313 315 311 312 310 311 312 313
23 12 359 341 333 329 329 318 325 333 338 334 330 333 331 331 336 335 331 328 326 321 319 316 310 310 312 315 316 314 313 316 317 325 319 308 310 303 303 299 307 311 313
358 332 320 314 309 318 330 339 345 353 346 333 328 327 329 332 327 329 332 335 337 330 318 310 307 308 310 315 313 310 310 309 302 310 313 300 304 298 301 302 308 310 313
333 317 318 310 320 332 342 337 2 6 340 325 320 322 324 324 323 329 335 338 334 332 322 318 309 308 310 315 314 310 309 306 298 302 314 299 305 302 303 299 303 309 315
293 304 331 324 312 314 325 341 353 337 327 319 320 330 323 316 325 336 345 338 333 332 337 331 325 324 327 332 335 332 327 322 312 310 318 302 310 312 302 294 301 313 318
233 285 320 315 297 297 317 332 332 323 316 315 321 329 330 330 333 337 343 336 324 327 337 336 334 335 335 335 341 339 321 314 311 309 324 321 311 324 311 297 305 312 314